This is the latest recevied weather packets stored in our database for station/object KN6CW-3. If no packets are shown the sender has not sent any weather packets the latest 10 day(s).
| Time | Temp. | Humidity | Pressure | Rain* | Wind** | Luminosity | Snow |
|---|---|---|---|---|---|---|---|
| 1777321406 | 19.44° C | 40% | 1023.3 hPa | 0 mm | - | 613 W/m² | - |
| 1777320803 | 20° C | 38% | 1023.2 hPa | 0 mm | - | 649 W/m² | - |
| 1777320502 | 19.44° C | 39% | 1023.3 hPa | 0 mm | - | 666 W/m² | - |
| 1777320202 | 19.44° C | 38% | 1023.1 hPa | 0 mm | - | 654 W/m² | - |
| 1777319902 | 19.44° C | 40% | 1023.3 hPa | 0 mm | - | 696 W/m² | - |
| 1777319301 | 19.44° C | 41% | 1023.3 hPa | 0 mm | - | 717 W/m² | - |
| 1777319001 | 19.44° C | 39% | 1023.3 hPa | 0 mm | - | 724 W/m² | - |
| 1777318701 | 19.44° C | 39% | 1023.3 hPa | 0 mm | - | 745 W/m² | - |
| 1777318400 | 19.44° C | 39% | 1023.4 hPa | 0 mm | - | 752 W/m² | - |
| 1777318100 | 19.44° C | 39% | 1023.3 hPa | 0 mm | - | 763 W/m² | - |
| 1777317800 | 19.44° C | 42% | 1023.3 hPa | 0 mm | - | 775 W/m² | - |
| 1777317500 | 18.89° C | 40% | 1023.3 hPa | 0 mm | - | 782 W/m² | - |
| 1777316899 | 18.89° C | 39% | 1023.5 hPa | 0 mm | - | 807 W/m² | - |
| 1777316599 | 18.89° C | 41% | 1023.6 hPa | 0 mm | - | 812 W/m² | - |
| 1777316298 | 18.89° C | 43% | 1023.5 hPa | 0 mm | - | 823 W/m² | - |
| 1777315999 | 18.89° C | 40% | 1023.5 hPa | 0 mm | - | 831 W/m² | - |
| 1777315698 | 18.89° C | 43% | 1023.3 hPa | 0 mm | - | 844 W/m² | - |
| 1777315397 | 18.89° C | 42% | 1023.5 hPa | 0 mm | - | 851 W/m² | - |
| 1777315097 | 18.89° C | 42% | 1023.5 hPa | 0 mm | - | 833 W/m² | - |
| 1777314798 | 18.89° C | 41% | 1023.3 hPa | 0 mm | - | 527 W/m² | - |
| 1777314497 | 18.89° C | 42% | 1023.5 hPa | 0 mm | - | 387 W/m² | - |
| 1777314196 | 18.33° C | 41% | 1023.4 hPa | 0 mm | - | 700 W/m² | - |
| 1777313896 | 18.89° C | 40% | 1023.4 hPa | 0 mm | - | 881 W/m² | - |
| 1777313596 | 18.89° C | 40% | 1023.3 hPa | 0 mm | - | 891 W/m² | - |
| 1777312995 | 18.33° C | 40% | 1023.6 hPa | 0 mm | - | 907 W/m² | - |
* Rain latest hour (hover to see other rain measurements)
** Current wind speed in m/s (hover to see current wind gust speed)